Overview Statistics Trail Chart Weather Telemetry Raw packets
 

This is the latest recevied weather packets stored in our database for station/object M0JUI-1. If no packets are shown the sender has not sent any weather packets the latest 10 day(s).

<< 21 22 23 24 25 26 27 >>
Time Temp. Humidity Pressure Rain* Wind** Luminosity Snow
1788490749 14.44° C 23% 1008.1 hPa 4.06 mm - 0 W/m² -
1788490449 14.44° C 22% 1008 hPa 4.32 mm - 0 W/m² -
1788490149 14.44° C 22% 1008.2 hPa 4.57 mm - 0 W/m² -
1788489849 14.44° C 22% 1008 hPa 5.59 mm - 0 W/m² -
1788489549 14.44° C 22% 1008 hPa 5.84 mm - 0 W/m² -
1788489249 14.44° C 22% 1008 hPa 6.1 mm - 0 W/m² -
1788488949 14.44° C 22% 1008.2 hPa 6.1 mm - 0 W/m² -
1788488649 14.44° C 21% 1008.2 hPa 6.6 mm - 0 W/m² -
1788488349 14.44° C 21% 1008.2 hPa 6.35 mm - 0 W/m² -
1788488049 14.44° C 21% 1008 hPa 6.1 mm - 0 W/m² -
1788487749 14.44° C 21% 1008.3 hPa 5.84 mm - 0 W/m² -
1788487449 14.44° C 20% 1008.2 hPa 5.59 mm - 0 W/m² -
1788487149 15° C 20% 1008 hPa 5.84 mm - 0 W/m² -
1788486849 15° C 20% 1008.2 hPa 5.84 mm - 0 W/m² -
1788486550 15° C 19% 1008.1 hPa 5.59 mm - 0 W/m² -
1788486246 15° C 19% 1007.9 hPa 5.08 mm - 0 W/m² -
1788485949 15° C 19% 1007.9 hPa 5.08 mm - 0 W/m² -
1788485649 15° C 19% 1007.9 hPa 5.08 mm - 0 W/m² -
1788485349 15° C 19% 1007.9 hPa 4.57 mm - 0 W/m² -
1788485050 15° C 19% 1008 hPa 4.83 mm - 0 W/m² -
1788484750 15° C 18% 1007.9 hPa 5.59 mm - 0 W/m² -
1788484449 15° C 18% 1008 hPa 5.59 mm - 0 W/m² -
1788484150 15° C 18% 1008 hPa 5.59 mm - 0 W/m² -
1788483849 15° C 18% 1008.4 hPa 5.59 mm - 0 W/m² -
1788483549 15° C 18% 1008.4 hPa 5.59 mm - 0 W/m² -

* Rain latest hour (hover to see other rain measurements)
** Current wind speed in m/s (hover to see current wind gust speed)